This is the latest recevied weather packets stored in our database for station/object WB0OCV. If no packets are shown the sender has not sent any weather packets the latest 10 day(s).
| Time | Temp. | Humidity | Pressure | Rain* | Wind** | Luminosity | Snow |
|---|---|---|---|---|---|---|---|
| 1777988442 | 16.67° C | 74% | 1015 hPa | 0 mm | - | 526 W/m² | - |
| 1777988139 | 16.11° C | 76% | 1015.1 hPa | 0 mm | - | 569 W/m² | - |
| 1777987834 | 15.56° C | 77% | 1015.4 hPa | 0 mm | - | 516 W/m² | - |
| 1777987532 | 15.56° C | 78% | 1015.3 hPa | 0 mm | - | 110 W/m² | - |
| 1777987229 | 15.56° C | 78% | 1015.2 hPa | 0 mm | - | 127 W/m² | - |
| 1777986925 | 15.56° C | 78% | 1015.2 hPa | 0 mm | - | 95 W/m² | - |
| 1777986624 | 15° C | 79% | 1015.2 hPa | 0 mm | - | 91 W/m² | - |
| 1777986321 | 15° C | 78% | 1015.3 hPa | 0 mm | - | 114 W/m² | - |
| 1777986020 | 15.56° C | 78% | 1015.4 hPa | 0 mm | - | 86 W/m² | - |
| 1777985716 | 15.56° C | 78% | 1015.2 hPa | 0 mm | - | 83 W/m² | - |
| 1777985413 | 15.56° C | 77% | 1015.1 hPa | 0 mm | - | 78 W/m² | - |
| 1777985109 | 15.56° C | 79% | 1015 hPa | 0 mm | - | 108 W/m² | - |
| 1777984806 | 15.56° C | 78% | 1014.9 hPa | 0 mm | - | 71 W/m² | - |
| 1777984502 | 15° C | 79% | 1015 hPa | 0 mm | - | 72 W/m² | - |
| 1777984198 | 15° C | 79% | 1014.9 hPa | 0 mm | - | 105 W/m² | - |
| 1777983896 | 15° C | 80% | 1015.1 hPa | 0 mm | - | 133 W/m² | - |
| 1777983592 | 14.44° C | 81% | 1015 hPa | 0 mm | - | 134 W/m² | - |
| 1777983289 | 14.44° C | 82% | 1015 hPa | 0 mm | - | 61 W/m² | - |
| 1777982985 | 14.44° C | 82% | 1015 hPa | 0 mm | - | 57 W/m² | - |
| 1777982682 | 14.44° C | 81% | 1014.9 hPa | 0 mm | - | 55 W/m² | - |
| 1777982381 | 14.44° C | 82% | 1015.2 hPa | 0 mm | - | 55 W/m² | - |
| 1777982077 | 13.89° C | 81% | 1014.9 hPa | 0 mm | - | 54 W/m² | - |
| 1777981776 | 13.89° C | 82% | 1014.9 hPa | 0 mm | - | 53 W/m² | - |
| 1777981471 | 13.89° C | 83% | 1015 hPa | 0 mm | - | 57 W/m² | - |
| 1777981168 | 13.33° C | 84% | 1015 hPa | 0 mm | - | 45 W/m² | - |
* Rain latest hour (hover to see other rain measurements)
** Current wind speed in m/s (hover to see current wind gust speed)